DateTimeUTC,F1_A11,F1_S11,BsB_S11,BsG_S11,BsR_S11,BbsB_S11,BbsG_S11,BbsR_S11,BaB_A11,BaG_A11,BaR_A11,Tu_S11,T_S11,Uu_S11,U_S11,P_S11,T1_A11
2021-03-26T20:00:00Z,00000200,21000000,,,,,,,-000.08,-000.42,-000.47,16.6,24.2,,00.0,0630.9,30.9
2021-03-26T20:01:00Z,00000200,21000000,,,,,,,-000.15,0000.03,0000.02,16.6,24.2,,00.0,0630.8,30.9
2021-03-26T20:02:00Z,00000200,21000000,,,,,,,0000.18,0000.39,0000.47,16.5,24.2,,00.0,0630.8,30.8
2021-03-26T20:03:00Z,00000200,61000000,,,,,,,0002.18,0001.95,0001.46,16.5,24.2,,00.0,0630.8,30.9
2021-03-26T20:04:00Z,00000200,41000000,0004.42,0003.36,0001.79,0001.14,0000.61,0000.39,0003.42,0002.91,0002.06,16.6,23.9,,00.0,0631.7,30.9
2021-03-26T20:05:00Z,00000200,01000000,0005.44,0003.18,0001.91,0001.01,0000.79,0000.65,0002.78,0003.02,0002.22,16.7,23.8,,00.0,0631.8,30.9
2021-03-26T20:06:00Z,00000200,01000000,0005.82,0003.17,0001.80,0000.29,0000.57,0000.58,0002.97,0002.78,0002.20,16.8,23.8,,00.0,0631.8,30.9
2021-03-26T20:07:00Z,00000200,01000000,0004.75,0003.13,0001.89,0001.00,0000.50,0000.51,0003.37,0002.39,0002.37,16.8,23.8,,00.0,0631.8,30.9
2021-03-26T20:08:00Z,00000200,01000000,0004.85,0003.01,0001.78,0000.74,0000.51,0000.58,0002.81,0003.06,0002.42,16.9,23.9,,00.0,0631.8,30.9
2021-03-26T20:09:00Z,00000200,01000000,0004.85,0003.17,0001.83,0000.70,0000.59,0000.21,0002.94,0002.98,0002.39,16.9,23.9,,00.0,0631.9,30.9
2021-03-26T20:10:00Z,00000200,01000000,0004.79,0003.19,0001.80,0000.68,0000.58,0000.65,0003.36,0002.66,0001.88,16.9,23.9,,00.0,0631.9,30.9
2021-03-26T20:11:00Z,00000200,01000000,0004.34,0003.14,0001.87,0000.84,0000.38,0000.72,0002.92,0002.97,0002.31,17.0,23.9,,00.0,0631.9,30.9
2021-03-26T20:12:00Z,00000200,01000000,0004.37,0003.24,0001.71,0000.40,0000.83,0000.52,0002.89,0002.94,0001.85,17.0,23.9,,00.0,0631.9,30.9
2021-03-26T20:13:00Z,00000200,01000000,0004.39,0003.16,0001.89,0000.97,0000.41,0000.63,0003.14,0002.91,0002.64,17.0,23.9,,00.0,0631.9,30.9
2021-03-26T20:14:00Z,00000200,01000000,0004.27,0002.93,0001.60,0000.31,0000.56,0000.67,0003.05,0002.57,0002.38,17.0,23.9,,00.0,0631.9,31.0
2021-03-26T20:15:00Z,00000200,01000000,0004.32,0003.06,0001.82,0000.95,0000.61,0000.41,0002.84,0002.71,0001.62,17.1,24.0,,00.0,0632.0,30.9
2021-03-26T20:16:00Z,00000200,01000000,0004.60,0003.12,0001.75,0000.87,0000.53,0000.60,0003.05,0002.96,0002.37,17.1,23.9,,00.0,0632.0,30.9
2021-03-26T20:17:00Z,00000200,01000000,0004.41,0003.13,0001.88,0000.83,0000.52,0000.66,0003.01,0002.63,0002.12,17.1,23.9,,00.0,0632.0,30.9
2021-03-26T20:18:00Z,00000200,01000000,0004.72,0003.03,0002.02,0000.96,0000.51,0000.51,0002.97,0002.72,0002.08,17.0,23.9,,00.0,0632.0,30.9
2021-03-26T20:19:00Z,00000200,01000000,0004.39,0003.27,0001.67,0001.09,0000.41,0000.63,0002.91,0003.10,0002.29,17.0,23.9,,00.0,0632.0,30.9
2021-03-26T20:20:00Z,00000200,01000000,0005.32,0003.14,0002.08,0001.22,0000.74,0000.55,0003.11,0002.53,0002.38,17.1,23.9,,00.0,0632.0,30.9
2021-03-26T20:21:00Z,00000200,01000000,0004.63,0003.28,0001.67,0001.07,0000.54,0000.84,0003.15,0002.96,0002.30,17.1,23.9,,00.0,0632.0,30.9
2021-03-26T20:22:00Z,00000200,01000000,0004.40,0002.98,0001.88,0000.49,0000.37,0000.75,0003.00,0002.79,0002.34,17.1,23.9,,00.0,0632.0,30.9
2021-03-26T20:23:00Z,00000200,01000000,0004.56,0003.34,0001.63,0000.48,0000.51,0000.48,0002.77,0002.66,0002.28,17.2,24.0,,00.0,0632.0,31.0
2021-03-26T20:24:00Z,00000200,01000000,0004.24,0003.05,0001.66,0001.26,0000.41,0000.43,0003.20,0002.66,0002.10,17.2,24.0,,00.0,0632.0,31.0
2021-03-26T20:25:00Z,00000200,01000000,0004.26,0002.93,0001.84,0001.03,0000.56,0000.32,0003.27,0003.24,0001.77,17.2,24.0,,00.0,0632.0,30.9
2021-03-26T20:26:00Z,00000200,01000000,0005.10,0002.80,0001.85,0000.85,0000.55,0000.48,0002.83,0002.78,0002.15,17.2,24.0,,00.0,0632.0,31.0
2021-03-26T20:27:00Z,00000200,01000000,0005.10,0003.25,0001.87,0000.70,0000.74,0000.63,0002.82,0002.12,0002.33,17.3,24.0,,00.0,0632.0,31.0
2021-03-26T20:28:00Z,00000200,01000000,0004.86,0003.15,0001.82,0000.75,0000.44,0000.56,0003.12,0002.91,0002.39,17.3,24.0,,00.0,0632.0,31.0
2021-03-26T20:29:00Z,00000200,01000000,0004.71,0003.12,0001.64,0000.74,0000.42,0000.58,0002.81,0002.60,0002.10,17.2,24.0,,00.0,0632.0,30.9
2021-03-26T20:30:00Z,00000200,01000000,0004.34,0002.92,0002.01,0000.62,0000.45,0000.69,0002.72,0002.52,0001.81,17.1,24.0,,00.0,0632.1,30.9
2021-03-26T20:31:00Z,00000200,01000000,0004.72,0002.94,0001.84,0000.90,0000.62,0000.68,0002.89,0002.94,0002.35,17.0,23.9,,00.0,0632.0,30.9
2021-03-26T20:32:00Z,00000200,01000000,0004.09,0002.94,0001.78,0001.00,0000.48,0000.52,0003.07,0002.56,0002.00,16.9,23.9,,00.0,0632.0,30.9
2021-03-26T20:33:00Z,00000200,01000000,0004.41,0003.21,0001.86,0000.47,0000.61,0000.59,0002.85,0002.93,0002.30,16.9,23.8,,00.0,0632.1,30.8
2021-03-26T20:34:00Z,00000200,01000000,0004.36,0003.02,0001.93,0000.47,0000.66,0000.74,0002.98,0003.15,0002.31,16.9,23.8,,00.0,0632.1,30.9
2021-03-26T20:35:00Z,00000200,01000000,0004.44,0003.13,0001.56,0000.81,0000.42,0000.51,0003.37,0002.44,0002.13,16.9,23.8,,00.0,0632.1,30.9
2021-03-26T20:36:00Z,00000200,01000000,0004.33,0003.03,0001.78,0000.53,0000.75,0000.53,0002.66,0002.39,0002.02,16.9,23.8,,00.0,0632.1,30.9
2021-03-26T20:37:00Z,00000200,01000000,0004.11,0003.01,0001.86,0000.77,0000.67,0000.63,0003.11,0003.13,0001.99,16.9,23.8,,00.0,0632.1,30.9
2021-03-26T20:38:00Z,00000200,01000000,0004.50,0003.26,0001.75,0000.58,0000.73,0000.60,0003.02,0003.04,0002.65,17.0,23.9,,00.0,0632.1,30.9
2021-03-26T20:39:00Z,00000200,01000000,0004.38,0003.24,0001.70,0000.83,0000.54,0000.60,0002.91,0002.41,0001.91,17.0,23.9,,00.0,0632.1,30.9
2021-03-26T20:40:00Z,00000200,01000000,0003.95,0002.93,0001.73,0000.62,0000.54,0000.41,0002.90,0002.60,0002.25,17.0,23.9,,00.0,0632.1,31.0
2021-03-26T20:41:00Z,00000200,01000000,0004.25,0003.04,0001.75,0000.46,0000.40,0000.65,0003.35,0002.92,0002.23,17.0,23.9,,00.0,0632.2,30.9
2021-03-26T20:42:00Z,00000200,01000000,0005.14,0003.35,0001.63,0001.03,0000.43,0000.49,0002.74,0002.61,0002.31,17.1,23.9,,00.0,0632.2,30.9
2021-03-26T20:43:00Z,00000200,01000000,0004.15,0003.16,0001.76,0000.24,0000.48,0000.71,0002.79,0003.14,0002.18,17.1,23.9,,00.0,0632.2,30.9
2021-03-26T20:44:00Z,00000200,01000000,0005.16,0002.99,0001.86,0000.85,0000.59,0000.63,0003.07,0002.71,0001.61,17.1,23.9,,00.0,0632.2,30.9
2021-03-26T20:45:00Z,00000200,01000000,0005.00,0002.96,0001.87,0000.66,0000.46,0000.59,0002.84,0002.67,0002.13,17.1,23.9,,00.0,0632.2,30.9
2021-03-26T20:46:00Z,00000200,01000000,0005.30,0002.91,0001.83,0000.71,0000.71,0000.57,0002.90,0002.56,0002.22,17.1,23.9,,00.0,0632.2,30.9
2021-03-26T20:47:00Z,00000200,01000000,0004.33,0003.00,0001.79,0001.12,0000.63,0000.34,0002.91,0002.75,0002.35,17.0,23.9,,00.0,0632.2,30.9
2021-03-26T20:48:00Z,00000200,01000000,0004.19,0003.02,0001.60,0001.02,0000.53,0000.48,0003.19,0002.23,0001.80,16.9,23.8,,00.0,0632.2,30.9
2021-03-26T20:49:00Z,00000200,01000000,0004.44,0003.11,0001.71,0001.08,0000.48,0000.53,0002.88,0003.46,0002.34,16.9,23.8,,00.0,0632.2,30.9
2021-03-26T20:50:00Z,00000200,01000000,0004.82,0003.04,0001.93,0000.50,0000.66,0000.40,0003.05,0002.61,0002.28,17.0,23.8,,00.0,0632.3,30.9
2021-03-26T20:51:00Z,00000200,01000000,0004.28,0002.90,0001.81,0000.78,0000.34,0000.36,0003.22,0002.74,0002.46,17.0,23.8,,00.0,0632.3,30.9
2021-03-26T20:52:00Z,00000200,01000000,0004.08,0002.93,0001.91,0000.36,0000.57,0000.53,0002.76,0002.72,0002.22,17.0,23.8,,00.0,0632.3,30.9
2021-03-26T20:53:00Z,00000200,01000000,0004.91,0003.18,0001.85,0000.80,0000.43,0000.58,0003.03,0002.89,0002.14,17.0,23.9,,00.0,0632.3,30.9
2021-03-26T20:54:00Z,00000200,01000000,0004.60,0002.94,0001.74,0000.64,0000.78,0000.45,0003.15,0002.93,0002.09,17.0,23.9,,00.0,0632.3,30.9
2021-03-26T20:55:00Z,00000200,01000000,0004.72,0003.29,0001.79,0001.29,0000.39,0000.44,0002.86,0002.42,0002.24,17.0,23.9,,00.0,0632.3,30.9
2021-03-26T20:56:00Z,00000200,01000000,0004.14,0003.18,0001.61,0000.39,0000.37,0000.58,0002.89,0002.72,0002.25,17.1,23.9,,00.0,0632.3,30.9
2021-03-26T20:57:00Z,00000200,41000000,,,,,,,0001.56,0001.60,0000.84,17.1,24.0,,00.0,0632.3,30.9
2021-03-26T20:58:00Z,00000200,61000000,,,,,,,-000.52,-000.40,0000.07,16.7,24.1,,00.0,0631.4,30.9
2021-03-26T20:59:00Z,00000200,21000000,,,,,,,-000.02,-000.26,-000.85,16.6,24.2,,00.0,0631.3,30.9
